Detroit Metro, MI

8:07 AM EDT on July 22, 2017 (GMT -0400)
Detroit Metro Wayne County

Weather History for KDTW - February, 2013

Change the Weather History Date:

Thursday, February 21, 2013

  Actual Average Record
Temperature  
Mean Temperature 24 °F 29 °F  
Max Temperature 27 °F 37 °F 63 °F (1930)
Min Temperature 21 °F 22 °F -2 °F (1918)
Degree Days  
Heating Degree Days 41 36  
Month to date heating degree days 819 791  
Since 1 July heating degree days 4054 4311  
Cooling Degree Days 0 0  
Month to date cooling degree days 0 0  
Year to date cooling degree days 0 0  
Moisture  
Dew Point 12 °F    
Average Humidity 62    
Maximum Humidity 74    
Minimum Humidity 50    
Precipitation  
Precipitation T in 0.07 in 0.87 in (1898)
Month to date precipitation 0.91 1.47  
Year to date precipitation 4.36 3.43  
Snow  
Snow T in 0.40 in 9.00 in (1898)
Month to date snowfall 13.5 7.7  
Since 1 July snowfall 34.5 31.4  
Snow Depth T in    
Sea Level Pressure  
Sea Level Pressure 30.33 in    
Wind  
Wind Speed 9 mph (North)    
Max Wind Speed 16 mph    
Max Gust Speed 22 mph    
Visibility 8 miles    
Events Snow    
T = Trace of Precipitation, MM = Missing Value Source: NWS Daily Summary

Daily Weather History Graph

Daily Weather History Graph

Search for Another Location

Airport or City:

Trip Planner

Search our weather history database for the weather conditions in past years. The results will help you decide how hot, cold, wet, or windy it might be!

Date:

Astronomy

Feb. 21, 2013 Rise Set
Actual Time 7:20 AM EST 6:13 PM EST
Civil Twilight 6:52 AM EST 6:42 PM EST
Nautical Twilight 6:19 AM EST 7:14 PM EST
Astronomical Twilight 5:47 AM EST 7:47 PM EST
Moon 2:24 PM EST (2/21) 4:27 AM EST (2/21)
Length of Visible Light 11h 50m
Length of Day
10h 53m
Waxing Gibbous, 83% of the Moon is Illuminated
Feb 21
Waxing Gibbous
Feb 25
Full
Mar 4
Last Quarter
Mar 11
New
Mar 19
First Quarter

Hourly Weather History & Observations

Time (EST) Temp. Windchill Dew Point Humidity Pressure Visibility Wind Dir Wind Speed Gust Speed Precip Events Conditions
12:27 AM 21.2 °F 9.5 °F 12.2 °F 68% 30.23 in 3.0 mi WNW 11.5 mph 21.9 mph 0.00 in Snow Light Snow
12:48 AM 21.2 °F 7.8 °F 10.4 °F 63% 30.23 in 5.0 mi NW 15.0 mph 20.7 mph 0.00 in Snow Light Snow
12:53 AM 21.9 °F 9.2 °F 10.9 °F 63% 30.27 in 5.0 mi NW 13.8 mph 20.7 mph 0.00 in Snow Light Snow
1:46 AM 21.2 °F 8.9 °F 12.2 °F 68% 30.24 in 4.0 mi NW 12.7 mph - 0.00 in Snow Light Snow
1:53 AM 21.9 °F 12.5 °F 12.0 °F 66% 30.28 in 4.0 mi NW 8.1 mph - 0.00 in Snow Light Snow
2:48 AM 21.2 °F 10.1 °F 12.2 °F 68% 30.26 in 2.5 mi NW 10.4 mph - 0.00 in Snow Light Snow
2:49 AM 21.9 °F 9.8 °F 12.9 °F 68% 30.30 in 2.5 mi NW 12.7 mph - 0.00 in Snow Light Snow
2:53 AM 21.9 °F 9.8 °F 12.9 °F 68% 30.30 in 2.5 mi NW 12.7 mph - 0.00 in Snow Light Snow
3:27 AM 21.2 °F 10.9 °F 12.2 °F 68% 30.26 in 5.0 mi NW 9.2 mph - 0.00 in Snow Light Snow
3:53 AM 21.9 °F 11.7 °F 12.0 °F 66% 30.28 in 7.0 mi NW 9.2 mph - 0.00 in Snow Light Snow
4:53 AM 21.0 °F 10.6 °F 12.0 °F 68% 30.30 in 7.0 mi NW 9.2 mph - 0.00 in Snow Light Snow
5:53 AM 21.9 °F 12.5 °F 12.0 °F 66% 30.32 in 9.0 mi WNW 8.1 mph - 0.00 in Snow Light Snow
6:53 AM 21.9 °F 11.7 °F 12.0 °F 66% 30.33 in 7.0 mi NW 9.2 mph - 0.00 in Snow Light Snow
7:53 AM 21.9 °F 11.0 °F 12.0 °F 66% 30.38 in 8.0 mi NW 10.4 mph - 0.00 in Snow Light Snow
8:53 AM 21.9 °F 9.8 °F 12.0 °F 66% 30.37 in 9.0 mi North 12.7 mph - 0.00 in Snow Light Snow
9:53 AM 21.9 °F 11.0 °F 12.0 °F 66% 30.38 in 9.0 mi North 10.4 mph - 0.00 in Snow Light Snow
10:53 AM 21.9 °F 12.5 °F 10.9 °F 63% 30.40 in 9.0 mi North 8.1 mph - 0.00 in Snow Light Snow
11:53 AM 23.0 °F 17.0 °F 10.4 °F 59% 30.37 in 9.0 mi North 4.6 mph - N/A   Overcast
12:53 PM 24.1 °F 17.0 °F 10.9 °F 57% 30.38 in 10.0 mi NE 5.8 mph - N/A   Overcast
1:53 PM 24.1 °F - 10.9 °F 57% 30.40 in 10.0 mi Calm Calm - N/A   Overcast
2:02 PM 26.6 °F 22.6 °F 10.4 °F 51% 30.35 in 10.0 mi North 3.5 mph - N/A   Overcast
2:53 PM 26.1 °F - 10.9 °F 53% 30.36 in 10.0 mi Calm Calm - N/A   Mostly Cloudy
3:53 PM 26.1 °F 16.8 °F 10.9 °F 53% 30.31 in 10.0 mi NE 9.2 mph - N/A   Mostly Cloudy
4:53 PM 25.0 °F 16.3 °F 10.0 °F 53% 30.37 in 10.0 mi NE 8.1 mph - N/A   Mostly Cloudy
5:53 PM 23.0 °F 13.1 °F 12.0 °F 63% 30.39 in 10.0 mi East 9.2 mph - N/A   Mostly Cloudy
6:53 PM 21.9 °F 11.0 °F 12.0 °F 66% 30.38 in 10.0 mi ENE 10.4 mph - N/A   Mostly Cloudy
7:53 PM 21.9 °F 11.7 °F 12.9 °F 68% 30.37 in 10.0 mi East 9.2 mph - N/A   Mostly Cloudy
8:36 PM 23.0 °F 12.4 °F 12.2 °F 63% 30.31 in 10.0 mi ENE 10.4 mph 17.3 mph N/A   Overcast
8:53 PM 23.0 °F 11.7 °F 14.0 °F 68% 30.35 in 10.0 mi ENE 11.5 mph - N/A   Overcast
9:53 PM 23.0 °F 13.1 °F 15.1 °F 72% 30.34 in 10.0 mi ENE 9.2 mph - N/A   Overcast
10:53 PM 23.0 °F 12.4 °F 16.0 °F 74% 30.32 in 10.0 mi ENE 10.4 mph - N/A   Overcast
11:53 PM 23.0 °F 13.1 °F 16.0 °F 74% 30.31 in 10.0 mi ENE 9.2 mph - N/A   Overcast